Melfa, VA

1:44 PM EST on February 10, 2016 (GMT -0500)
Accomack County

Weather History for KMFV - March, 2013

Change the Weather History Date:

Friday, March 15, 2013

  Actual Average (KWAL) Record (KWAL)
Temperature  
Mean Temperature 43 °F 45 °F  
Max Temperature 55 °F 53 °F 80 °F (2012)
Min Temperature 33 °F 36 °F 20 °F (1993)
Degree Days  
Heating Degree Days 22    
Month to date heating degree days  
Since 1 July heating degree days  
Cooling Degree Days 0    
Month to date cooling degree days  
Year to date cooling degree days  
Moisture  
Dew Point 24 °F    
Average Humidity 44    
Maximum Humidity 70    
Minimum Humidity 21    
Precipitation  
Precipitation 0.00 in 0.13 in 0.84 in (2001)
Month to date precipitation 1.88  
Year to date precipitation 7.68  
Sea Level Pressure  
Sea Level Pressure 30.00 in    
Wind  
Wind Speed 9 mph (WSW)    
Max Wind Speed 17 mph    
Max Gust Speed 24 mph    
Visibility 10 miles    
Events      
T = Trace of Precipitation, MM = Missing Value Source: NWS Daily Summary

Daily Weather History Graph

Daily Weather History Graph

Search for Another Location

Airport or City:

Trip Planner

Search our weather history database for the weather conditions in past years. The results will help you decide how hot, cold, wet, or windy it might be!

Date:

Astronomy

Mar. 15, 2013 Rise Set
Actual Time 7:13 AM EDT 7:10 PM EDT
Civil Twilight 6:47 AM EDT 7:36 PM EDT
Nautical Twilight 6:17 AM EDT 8:07 PM EDT
Astronomical Twilight 5:46 AM EDT 8:37 PM EDT
Moon 9:07 AM EDT (3/15) 11:16 PM EDT (3/15)
Length of Visible Light 12h 48m
Length of Day
11h 56m
Waxing Crescent, 15% of the Moon is Illuminated
Mar 15
Waxing Crescent
Mar 19
First Quarter
Mar 27
Full
Apr 3
Last Quarter
Apr 10
New

Hourly Weather History & Observations

Time (EDT) Temp. Windchill Dew Point Humidity Pressure Visibility Wind Dir Wind Speed Gust Speed Precip Events Conditions
12:16 AM 42.8 °F 38.0 °F 21.2 °F 42% 30.10 in 10.0 mi NW 8.1 mph - N/A   Clear
12:35 AM 42.8 °F 36.6 °F 21.2 °F 42% 30.10 in 10.0 mi NW 11.5 mph 17.3 mph N/A   Clear
12:55 AM 41.0 °F 33.9 °F 21.2 °F 45% 30.10 in 10.0 mi NW 12.7 mph - N/A   Clear
1:15 AM 41.0 °F 34.3 °F 21.2 °F 45% 30.10 in 10.0 mi NW 11.5 mph 18.4 mph N/A   Clear
1:35 AM 42.8 °F 36.6 °F 21.2 °F 42% 30.10 in 10.0 mi NW 11.5 mph - N/A   Clear
1:55 AM 41.0 °F 35.8 °F 21.2 °F 45% 30.11 in 10.0 mi NW 8.1 mph - N/A   Clear
2:15 AM 39.2 °F 33.6 °F 23.0 °F 52% 30.11 in 10.0 mi NW 8.1 mph - N/A   Clear
2:35 AM 41.0 °F 35.2 °F 23.0 °F 49% 30.11 in 10.0 mi WNW 9.2 mph - N/A   Clear
2:56 AM 39.2 °F 33.0 °F 23.0 °F 52% 30.10 in 10.0 mi NW 9.2 mph - N/A   Clear
3:15 AM 39.2 °F 33.0 °F 21.2 °F 49% 30.10 in 10.0 mi NW 9.2 mph - N/A   Clear
3:55 AM 41.0 °F 33.9 °F 21.2 °F 45% 30.09 in 10.0 mi NW 12.7 mph 17.3 mph N/A   Clear
4:15 AM 41.0 °F 35.2 °F 21.2 °F 45% 30.09 in 10.0 mi NW 9.2 mph 18.4 mph N/A   Clear
4:35 AM 41.0 °F 33.9 °F 19.4 °F 42% 30.09 in 10.0 mi NW 12.7 mph 16.1 mph N/A   Clear
4:55 AM 39.2 °F 32.5 °F 21.2 °F 49% 30.09 in 10.0 mi NW 10.4 mph 18.4 mph N/A   Clear
5:35 AM 39.2 °F 33.6 °F 21.2 °F 49% 30.10 in 10.0 mi NW 8.1 mph - N/A   Clear
5:55 AM 39.2 °F 35.0 °F 21.2 °F 49% 30.10 in 10.0 mi NW 5.8 mph - N/A   Clear
6:15 AM 39.2 °F 35.0 °F 21.2 °F 49% 30.12 in 10.0 mi NW 5.8 mph - N/A   Clear
6:35 AM 39.2 °F 35.0 °F 21.2 °F 49% 30.11 in 10.0 mi NW 5.8 mph - N/A   Clear
6:55 AM 37.4 °F 33.8 °F 21.2 °F 52% 30.12 in 10.0 mi NW 4.6 mph - N/A   Clear
7:15 AM 37.4 °F 34.9 °F 21.2 °F 52% 30.12 in 10.0 mi WNW 3.5 mph - N/A   Clear
7:35 AM 33.8 °F - 23.0 °F 65% 30.11 in 10.0 mi Calm Calm - N/A   Clear
7:55 AM 33.8 °F - 24.8 °F 70% 30.12 in 10.0 mi Calm Calm - N/A   Clear
8:15 AM 35.6 °F - 26.6 °F 70% 30.12 in 10.0 mi Calm Calm - N/A   Clear
8:55 AM 42.8 °F 41.1 °F 23.0 °F 46% 30.12 in 10.0 mi West 3.5 mph - N/A   Clear
9:15 AM 42.8 °F 41.1 °F 21.2 °F 42% 30.12 in 10.0 mi WNW 3.5 mph - N/A   Clear
9:35 AM 44.6 °F 43.1 °F 21.2 °F 39% 30.11 in 10.0 mi WNW 3.5 mph - N/A   Clear
9:55 AM 44.6 °F 40.2 °F 17.6 °F 34% 30.11 in 10.0 mi WNW 8.1 mph - N/A   Clear
10:15 AM 44.6 °F 40.7 °F 17.6 °F 34% 30.11 in 10.0 mi NW 6.9 mph - N/A   Clear
10:35 AM 46.4 °F 43.5 °F 17.6 °F 32% 30.09 in 10.0 mi West 5.8 mph - N/A   Clear
10:55 AM 46.4 °F 42.9 °F 17.6 °F 32% 30.08 in 10.0 mi WSW 6.9 mph - N/A   Clear
11:15 AM 48.2 °F - 17.6 °F 30% 30.07 in 10.0 mi SW 10.4 mph - N/A   Clear
11:35 AM 48.2 °F - 15.8 °F 27% 30.06 in 10.0 mi SW 11.5 mph 17.3 mph N/A   Clear
11:55 AM 48.2 °F - 17.6 °F 30% 30.05 in 10.0 mi SW 11.5 mph - N/A   Clear
12:15 PM 50.0 °F - 15.8 °F 26% 30.03 in 10.0 mi SSW 15.0 mph - N/A   Clear
12:35 PM 50.0 °F - 15.8 °F 26% 30.02 in 10.0 mi SSW 10.4 mph 21.9 mph N/A   Clear
12:55 PM 50.0 °F - 14.0 °F 24% 30.02 in 10.0 mi WSW 12.7 mph 23.0 mph N/A   Clear
1:15 PM 51.8 °F - 12.2 °F 21% 30.01 in 10.0 mi SW 16.1 mph 20.7 mph N/A   Clear
1:35 PM 51.8 °F - 15.8 °F 24% 30.01 in 10.0 mi SW 13.8 mph 17.3 mph N/A   Clear
1:55 PM 51.8 °F - 14.0 °F 22% 29.99 in 10.0 mi SSW 13.8 mph 24.2 mph N/A   Clear
2:16 PM 51.8 °F - 15.8 °F 24% 29.98 in 10.0 mi SW 12.7 mph 21.9 mph N/A   Clear
2:35 PM 51.8 °F - 15.8 °F 24% 29.96 in 10.0 mi SSW 17.3 mph 23.0 mph N/A   Clear
2:56 PM 51.8 °F - 15.8 °F 24% 29.94 in 10.0 mi SW 17.3 mph 23.0 mph N/A   Clear
3:16 PM 53.6 °F - 15.8 °F 22% 29.94 in 10.0 mi SSW 16.1 mph 23.0 mph N/A   Clear
3:35 PM 53.6 °F - 19.4 °F 26% 29.93 in 10.0 mi South 9.2 mph 23.0 mph N/A   Clear
3:55 PM 51.8 °F - 24.8 °F 35% 29.92 in 10.0 mi South 10.4 mph 17.3 mph N/A   Clear
4:16 PM 51.8 °F - 26.6 °F 38% 29.91 in 10.0 mi South 9.2 mph - N/A   Clear
4:35 PM 51.8 °F - 28.4 °F 41% 29.90 in 10.0 mi SSE 6.9 mph - N/A   Clear
4:55 PM 50.0 °F - 30.2 °F 47% 29.89 in 10.0 mi South 8.1 mph - N/A   Clear
5:15 PM 51.8 °F - 30.2 °F 44% 29.88 in 10.0 mi South 3.5 mph - N/A   Clear
5:35 PM 51.8 °F - 32.0 °F 47% 29.87 in 10.0 mi SE 4.6 mph - N/A   Clear
5:56 PM 51.8 °F - 32.0 °F 47% 29.87 in 10.0 mi South 5.8 mph - N/A   Clear
6:17 PM 51.8 °F - 33.8 °F 50% 29.87 in 10.0 mi Calm Calm - N/A   Clear
6:35 PM 50.0 °F - 35.6 °F 58% 29.86 in 10.0 mi Calm Calm - N/A   Clear
6:55 PM 48.2 °F - 35.6 °F 62% 29.86 in 10.0 mi Calm Calm - N/A   Clear
7:15 PM 48.2 °F - 37.4 °F 66% 29.86 in 10.0 mi South 4.6 mph - N/A   Clear
7:35 PM 48.2 °F - 37.4 °F 66% 29.86 in 10.0 mi South 3.5 mph - N/A   Clear
7:56 PM 48.2 °F - 37.4 °F 66% 29.86 in 10.0 mi South 4.6 mph - N/A   Clear
8:15 PM 48.2 °F - 35.6 °F 62% 29.86 in 10.0 mi SSW 6.9 mph - N/A   Clear
8:35 PM 50.0 °F - 33.8 °F 54% 29.85 in 10.0 mi SW 5.8 mph - N/A   Clear
8:55 PM 51.8 °F - 33.8 °F 50% 29.85 in 10.0 mi SSW 6.9 mph - N/A   Clear
9:15 PM 51.8 °F - 33.8 °F 50% 29.85 in 10.0 mi SW 6.9 mph - N/A   Clear
9:35 PM 51.8 °F - 33.8 °F 50% 29.85 in 10.0 mi SW 8.1 mph - N/A   Clear
9:55 PM 51.8 °F - 33.8 °F 50% 29.84 in 10.0 mi SSW 6.9 mph - N/A   Clear
10:15 PM 51.8 °F - 33.8 °F 50% 29.85 in 10.0 mi SSW 8.1 mph - N/A   Clear
10:35 PM 51.8 °F - 33.8 °F 50% 29.84 in 10.0 mi SSW 8.1 mph - N/A   Clear
10:55 PM 51.8 °F - 33.8 °F 50% 29.84 in 10.0 mi SW 9.2 mph - N/A   Clear
11:15 PM 53.6 °F - 33.8 °F 47% 29.84 in 10.0 mi SW 12.7 mph 17.3 mph N/A   Clear
11:35 PM 53.6 °F - 32.0 °F 44% 29.83 in 10.0 mi SW 12.7 mph - N/A   Clear
11:55 PM 55.4 °F - 32.0 °F 41% 29.83 in 10.0 mi SW 11.5 mph 18.4 mph N/A   Clear